Regional Weather Roundup
Issued by NWS Charleston, SC

Current Version | Previous Version | Graphics & Text | Print | Product List | Glossary On
Versions: 1 2 3 4 5 6 7 8 9 10 11 12 13 14 15 16 17 18 19 20 21 22 23 24 25 26 27 28 29 30 31 32 33 34 35 36 37 38 39 40 41 42 43 44 45 46 47 48 49 50
000 ASUS42 KCHS 292326 RWRCHS REGIONAL WEATHER ROUNDUP NATIONAL WEATHER SERVICE CHARLESTON SC 700 PM EDT SUN MAR 29 2015 NOTE: "FAIR" INDICATES FEW OR NO CLOUDS BELOW 12,000 FEET WITH NO SIGNIFICANT WEATHER AND/OR OBSTRUCTIONS TO VISIBILITY. NOT ALL STATIONS ARE QUALITY CONTROLLED BY THE NATIONAL WEATHER SERVICE. USE DATA WITH CAUTION...ESPECIALLY DEWPOINT OBSERVATIONS. SCZ027-030-031-034>040-042>050-300000- ...SOUTHEAST SOUTH CAROLINA... CITY SKY/WX TMP DP RH WIND PRES REMARKS N CHARLESTON PTCLDY 56 12 17 CALM 30.33F WATERFRONT PRK N/A 52 N/A N/A SE9 N/A MOUNT PLEASANT FAIR 52 34 50 CALM 30.34S PINOPOLIS N/A 59 12 15 VRB3 30.25F MONCKS CORNER FAIR 54 14 20 CALM 30.34S SUMMERVILLE FAIR 55 19 24 CALM 30.34S BEAUFORT MCAS CLEAR 55 35 47 S6 30.34S BEAUFORT ARPT FAIR 52 34 50 SE6 30.34R HILTON HEAD IS CLEAR 54 32 43 SE6 30.36S WALTERBORO CLEAR 54 18 24 E5 30.33S ALLENDALE FAIR 57 19 23 CALM 30.32R ...SOUTHERN MIDLANDS AND PEE DEE... CITY SKY/WX TMP DP RH WIND PRES REMARKS GEORGETOWN NOT AVBL KINGSTREE NOT AVBL ORANGEBURG CLEAR 56 16 20 VRB3 30.33R BARNWELL FAIR 57 18 21 SE6 30.32S AIKEN FAIR 54 14 20 SW6 30.33S MANNING RAIN 52 18 25 CALM 30.34S COLUMBIA PTCLDY 57 12 17 S8 30.31R SUMTER CLEAR 55 12 18 S5 30.30S FLORENCE CLEAR 53 9 17 W3 30.33S MYRTLE BEACH CLEAR 50 27 40 SE9 30.36S N MYRTLE BEACH CLEAR 49 28 44 S6 30.35R $$ GAZ063-065-086>088-099>101-113>116-118-119-134>141-150-300000- ...SOUTHEAST GEORGIA... CITY SKY/WX TMP DP RH WIND PRES REMARKS SAVANNAH ARPT CLEAR 54 26 34 SE10 30.34R HUNTER AAF CLEAR 53 29 38 SE8 30.33R FORT STEWART CLEAR 56 32 40 SE9 30.32R STATESBORO CLEAR 57 24 28 CALM 30.32S SYLVANIA CLEAR 57 25 29 CALM 30.33R CLAXTON FAIR 59 32 36 CALM 30.32S ...CSRA...CENTRAL AND FAR SOUTHEAST GEORGIA... CITY SKY/WX TMP DP RH WIND PRES REMARKS THOMSON CLEAR 60 24 25 CALM 30.33S AUGUSTA-BUSH CLEAR 57 14 18 SW9 30.31R AUGUSTA-DANIEL CLEAR 59 13 16 VRB5 30.30S SWAINSBORO FAIR 61 -22 3 S5 30.31S VIDALIA CLEAR 61 28 29 SW7 30.32R EASTMAN FAIR 61 26 25 S5 30.32F HAZLEHURST FAIR 59 27 29 CALM 30.30S ALMA CLEAR 61 23 23 VRB3 30.31F WAYCROSS CLEAR 65 30 27 CALM 30.31S JESUP FAIR 59 37 44 SE7 30.34R BAXLEY FAIR 61 27 27 S3 30.31S BRUNSWICK CLEAR 54 32 43 E8 30.37S SAINT SIMONS CLEAR 53 33 46 E8 30.36F $$ SCZ027-028-034-036>038-045-046-048>050-GAZ119-141-300000- ...LAKE AND SUPPLEMENTAL COASTAL OBSERVATIONS... STATION/POSITION TIME TEMP WIND PRES WAVE SWELL AIR SEA DIR/SP/G HT/PER HT/PER/DIR (UTC) (F) (DEG/KT/KT) (MB) (FT/S) (FT/S/D) UPR LAKE MARION NOT AVBL WINYAH BAY 2245 48 150/ 7 1027.0S LAKE MURRAY 2200 62 CALM 1025.7F ACE BASIN NERRS NOT AVBL FORT PULASKI 2200 110/ 7/ 10 1028.0F SAPELO ISLAND 2300 55 130/ 5 1028.0S $$ ANZ835-935-AMZ111-154-330-350-352-354-370-450-454-472-300000- ...C-MAN AND BUOY OBSERVATIONS... STATION/POSITION TIME TEMP WIND PRES WAVE SWELL AIR SEA DIR/SP/G HT/PER HT/PER/DIR (UTC) (F) (DEG/KT/KT) (MB) (FT/S) (FT/S/D) BUOY 41004 2250 51 68 30/ 8/ 12 1027.6F 3/ 7 3/ 7 BUOY 41008 2250 53 61 100/ 4/ 6 1028.4R 4/ 7 3/ 70/ 7 FOLLY BEACH CMAN 2300 50 130/ 7/ 9 1027.6F CAPERS NEARSHORE NOT AVBL FRIPP NEARSHORE 2200 52 120/ 8/ 8 1026.8F STATION/POSITION TIME TEMP WIND PRES WAVE SWELL AIR SEA DIR/SP/G HT/PER HT/PER/DIR (UTC) (F) (DEG/KT/KT) (MB) (FT/S) (FT/S/D) 5E ST. MARYS GA 2221 60 N/A 3/ 7 FRYING PAN BUOY 2250 46 65 CALM / 2 1028.5F 3/ 6 3/ 70/ 6 BUOY 41025 NOT AVBL CAPE LOOKOUT NC 2300 45 240/ 3/ 5 1027.6R BUOY 41002 2250 53 68 320/ 16/ 21 1027.0R 6/ 7 3/ 10/ 8 BUOY 41010 2220 63 76 20/ 10/ 14 1025.8R ST AUGUSTINE FL 2300 56 63 30/ 10/ 11 1028.5R $$

USA.gov is the U.S. government's official web portal to all federal, state and local government web resources and services.